FIN7WP EFHK-EHAM

Flight info

Callsign FIN7WP
Flight time N/A
Altitude 40000
Route NUNTO Y369 REKDO DCT KOSKA DCT KOPIM N872 DEMIR DCT WANZA N872 OGFON DCT KUBAT T200 BLUFA
Aircraft A359/H-SDE2E3GHIJ3J4J5LM1ORWXY/LB1D1

Departure

Time 2026-05-07 18:42
Airport Helsinki Vantaa Airport (EFHK)

Arrival

Time N/A
Airport Amsterdam Airport Schiphol (EHAM)
Time Latitude Longitude Altitude Speed Heading
2026-05-07 18:00 60.31673 24.96027 173 ft 0 kts 137°
2026-05-07 18:29 60.31685 24.96005 173 ft 4 kts 137°
2026-05-07 18:29 60.31705 24.95968 173 ft 4 kts 137°
2026-05-07 18:29 60.31721 24.95938 173 ft 4 kts 130°
2026-05-07 18:29 60.31728 24.95903 173 ft 4 kts 54°
2026-05-07 18:30 60.31711 24.95865 173 ft 4 kts 47°
2026-05-07 18:30 60.31693 24.95825 173 ft 4 kts 47°
2026-05-07 18:30 60.31684 24.95806 173 ft 0 kts 47°
2026-05-07 18:33 60.31697 24.95835 173 ft 10 kts 47°
2026-05-07 18:33 60.31754 24.95960 173 ft 14 kts 47°
2026-05-07 18:34 60.31829 24.96111 173 ft 16 kts 29°
2026-05-07 18:34 60.31923 24.96036 174 ft 16 kts 319°
2026-05-07 18:34 60.31997 24.95901 179 ft 7 kts 317°
2026-05-07 18:34 60.31998 24.95899 179 ft 0 kts 317°
2026-05-07 18:35 60.32054 24.95795 180 ft 22 kts 317°
2026-05-07 18:35 60.32193 24.95539 180 ft 28 kts 317°
2026-05-07 18:35 60.32342 24.95283 183 ft 28 kts 330°
2026-05-07 18:36 60.32522 24.95155 197 ft 26 kts 342°
2026-05-07 18:36 60.32674 24.95056 200 ft 16 kts 342°
2026-05-07 18:36 60.32794 24.94978 183 ft 21 kts 342°
2026-05-07 18:36 60.32932 24.94841 183 ft 22 kts 319°
2026-05-07 18:37 60.33004 24.94708 196 ft 12 kts 317°
2026-05-07 18:37 60.33059 24.94606 203 ft 2 kts 317°
2026-05-07 18:39 60.33073 24.94580 206 ft 7 kts 317°
2026-05-07 18:40 60.33114 24.94445 203 ft 14 kts 270°
2026-05-07 18:40 60.33061 24.94273 207 ft 10 kts 228°
2026-05-07 18:40 60.33059 24.94269 207 ft 0 kts 227°
2026-05-07 18:41 60.33059 24.94268 207 ft 0 kts 227°
2026-05-07 18:41 60.32964 24.94059 207 ft 57 kts 227°
2026-05-07 18:42 60.32519 24.93080 183 ft 129 kts 227°
2026-05-07 18:42 60.31787 24.91465 405 ft 168 kts 226°
2026-05-07 18:42 60.31015 24.89719 1304 ft 165 kts 233°
2026-05-07 18:42 60.30750 24.87577 2158 ft 160 kts 285°
2026-05-07 18:43 60.30832 24.85289 2910 ft 167 kts 269°
2026-05-07 18:43 60.30586 24.83002 3649 ft 174 kts 261°
2026-05-07 18:43 60.30438 24.80408 3955 ft 202 kts 271°
2026-05-07 18:43 60.30231 24.77311 4113 ft 241 kts 257°
2026-05-07 18:44 60.29643 24.74020 4816 ft 254 kts 251°
2026-05-07 18:44 60.28961 24.70677 5712 ft 260 kts 250°
2026-05-07 18:44 60.28262 24.67280 6677 ft 264 kts 249°
2026-05-07 18:44 60.27561 24.63868 7701 ft 265 kts 249°
2026-05-07 18:45 60.26857 24.60421 8792 ft 266 kts 249°
2026-05-07 18:45 60.26168 24.57061 9885 ft 267 kts 249°
2026-05-07 18:45 60.25466 24.53655 10905 ft 266 kts 250°
2026-05-07 18:45 60.24757 24.50216 11977 ft 265 kts 250°
2026-05-07 18:46 60.23967 24.46841 12960 ft 271 kts 246°
2026-05-07 18:46 60.23053 24.43370 13482 ft 291 kts 245°
2026-05-07 18:46 60.22081 24.39757 13940 ft 310 kts 245°
2026-05-07 18:46 60.21045 24.35918 14539 ft 322 kts 245°
2026-05-07 18:47 60.19965 24.31925 15337 ft 327 kts 245°
2026-05-07 18:47 60.18873 24.27897 16305 ft 329 kts 245°
2026-05-07 18:47 60.17776 24.23850 17267 ft 330 kts 245°
2026-05-07 18:47 60.16671 24.19779 18216 ft 334 kts 245°
2026-05-07 18:48 60.15544 24.15627 18853 ft 342 kts 245°
2026-05-07 18:48 60.14398 24.11414 19578 ft 346 kts 245°
2026-05-07 18:48 60.13236 24.07154 20391 ft 348 kts 245°
2026-05-07 18:48 60.12065 24.02868 21195 ft 351 kts 245°
2026-05-07 18:49 60.10902 23.98616 21961 ft 354 kts 244°
2026-05-07 18:49 60.09711 23.94271 22745 ft 357 kts 244°
2026-05-07 18:49 60.08511 23.89904 23593 ft 359 kts 245°
2026-05-07 18:49 60.07308 23.85488 24231 ft 362 kts 245°
2026-05-07 18:50 60.06505 23.82457 24554 ft 366 kts 245°
2026-05-07 18:50 60.05355 23.78037 24955 ft 374 kts 246°
2026-05-07 18:50 60.04153 23.73387 25538 ft 378 kts 246°
2026-05-07 18:50 60.02935 23.68691 26172 ft 381 kts 245°
2026-05-07 18:51 60.01702 23.63966 26784 ft 384 kts 245°
2026-05-07 18:51 60.00454 23.59214 27366 ft 388 kts 245°
2026-05-07 18:51 59.99188 23.54418 27976 ft 392 kts 245°
2026-05-07 18:51 59.97908 23.49589 28535 ft 395 kts 245°
2026-05-07 18:52 59.96609 23.44699 29090 ft 399 kts 245°
2026-05-07 18:52 59.95299 23.39783 29628 ft 403 kts 245°
2026-05-07 18:52 59.93975 23.34822 30146 ft 407 kts 245°
2026-05-07 18:52 59.92640 23.29832 30587 ft 411 kts 245°
2026-05-07 18:53 59.91288 23.24787 30960 ft 415 kts 244°
2026-05-07 18:53 59.89915 23.19676 31327 ft 419 kts 244°
2026-05-07 18:53 59.88529 23.14528 31699 ft 423 kts 244°
2026-05-07 18:53 59.87148 23.09409 31926 ft 428 kts 244°
2026-05-07 18:54 59.85728 23.04159 32256 ft 432 kts 244°
2026-05-07 18:54 59.84296 22.98876 32618 ft 435 kts 244°
2026-05-07 18:54 59.82850 22.93558 32997 ft 438 kts 244°
2026-05-07 18:54 59.81395 22.88220 33296 ft 442 kts 244°
2026-05-07 18:55 59.79927 22.82843 33743 ft 442 kts 244°
2026-05-07 18:55 59.78463 22.77496 34195 ft 441 kts 244°
2026-05-07 18:55 59.76991 22.72120 34556 ft 442 kts 244°
2026-05-07 18:55 59.75520 22.66757 34896 ft 442 kts 244°
2026-05-07 18:56 59.74060 22.61462 35231 ft 443 kts 244°
2026-05-07 18:56 59.72595 22.56162 35564 ft 443 kts 243°
2026-05-07 18:56 59.71110 22.50807 35876 ft 444 kts 243°
2026-05-07 18:56 59.69621 22.45447 36190 ft 444 kts 243°
2026-05-07 18:57 59.68122 22.40060 36491 ft 445 kts 243°
2026-05-07 18:57 59.66625 22.34694 36786 ft 446 kts 243°
2026-05-07 18:57 59.65122 22.29317 37084 ft 446 kts 243°
2026-05-07 18:57 59.63616 22.23940 37394 ft 447 kts 243°
2026-05-07 18:58 59.62107 22.18567 37694 ft 447 kts 243°
2026-05-07 18:58 59.60612 22.13254 37971 ft 448 kts 242°
2026-05-07 18:58 59.59097 22.07884 38258 ft 448 kts 242°
2026-05-07 18:58 59.57572 22.02490 38544 ft 448 kts 242°
2026-05-07 18:59 59.56044 21.97102 38814 ft 449 kts 242°
2026-05-07 18:59 59.54515 21.91719 38980 ft 451 kts 242°
2026-05-07 18:59 59.52998 21.86390 39178 ft 451 kts 242°
2026-05-07 18:59 59.51438 21.80926 39358 ft 452 kts 242°
2026-05-07 19:00 59.49915 21.75604 39539 ft 452 kts 242°
2026-05-07 19:00 59.48369 21.70213 39758 ft 452 kts 242°
2026-05-07 19:00 59.46820 21.64827 39935 ft 452 kts 242°
2026-05-07 19:00 59.45270 21.59445 40109 ft 453 kts 242°
2026-05-07 19:01 59.43710 21.54036 40155 ft 454 kts 242°
2026-05-07 19:01 59.40598 21.43266 40157 ft 453 kts 242°
2026-05-07 19:02 59.37468 21.32515 40162 ft 454 kts 242°
2026-05-07 19:02 59.34326 21.21771 40162 ft 454 kts 241°
2026-05-07 19:03 59.31181 21.11058 40155 ft 454 kts 241°
2026-05-07 19:03 59.28026 21.00356 40172 ft 454 kts 241°
2026-05-07 19:04 59.24880 20.89736 40166 ft 454 kts 241°
2026-05-07 19:04 59.21685 20.79000 40164 ft 455 kts 241°
2026-05-07 19:05 59.18519 20.68411 40167 ft 455 kts 241°
2026-05-07 19:05 59.15272 20.57799 40169 ft 455 kts 240°
2026-05-07 19:06 59.11941 20.47300 40152 ft 455 kts 239°
2026-05-07 19:06 59.06957 20.31636 40166 ft 455 kts 239°
2026-05-07 19:07 59.03628 20.21173 40174 ft 455 kts 239°
2026-05-07 19:07 59.00293 20.10723 40187 ft 455 kts 240°
2026-05-07 19:08 58.96947 20.00287 40173 ft 455 kts 239°
2026-05-07 19:08 58.93590 19.89865 40173 ft 455 kts 239°
2026-05-07 19:09 58.90228 19.79475 40170 ft 456 kts 239°
2026-05-07 19:09 58.86877 19.69163 40173 ft 456 kts 239°
2026-05-07 19:10 58.83497 19.58809 40172 ft 456 kts 239°
2026-05-07 19:10 58.80098 19.48442 40174 ft 456 kts 239°
2026-05-07 19:11 58.76691 19.38097 40172 ft 456 kts 239°
2026-05-07 19:11 58.73300 19.27844 40174 ft 456 kts 239°
2026-05-07 19:12 58.69871 19.17522 40173 ft 456 kts 239°
2026-05-07 19:12 58.66455 19.07290 40172 ft 456 kts 239°
2026-05-07 19:13 58.63019 18.97035 40172 ft 456 kts 239°
2026-05-07 19:13 58.59577 18.86805 40172 ft 456 kts 238°
2026-05-07 19:14 58.56122 18.76584 40173 ft 456 kts 238°
2026-05-07 19:14 58.52661 18.66388 40172 ft 456 kts 238°
2026-05-07 19:15 58.49209 18.56263 40175 ft 458 kts 238°
2026-05-07 19:15 58.45715 18.46059 40173 ft 459 kts 238°
2026-05-07 19:16 58.42208 18.35860 40171 ft 459 kts 238°
2026-05-07 19:16 58.38692 18.25681 40171 ft 459 kts 238°
2026-05-07 19:17 58.35164 18.15508 40171 ft 459 kts 238°
2026-05-07 19:17 58.31631 18.05364 40147 ft 459 kts 237°
2026-05-07 19:18 58.28093 17.95250 40169 ft 459 kts 237°
2026-05-07 19:18 58.24548 17.85160 40170 ft 460 kts 237°
2026-05-07 19:19 58.21011 17.75135 40168 ft 460 kts 237°
2026-05-07 19:19 58.17444 17.65069 40168 ft 460 kts 237°
2026-05-07 19:20 58.13868 17.55017 40170 ft 460 kts 237°
2026-05-07 19:20 58.10279 17.44973 40170 ft 460 kts 237°
2026-05-07 19:21 58.06703 17.35005 40170 ft 462 kts 237°
2026-05-07 19:21 58.03083 17.24959 40169 ft 462 kts 237°
2026-05-07 19:22 57.99457 17.14937 40172 ft 462 kts 236°
2026-05-07 19:22 57.95822 17.04934 40170 ft 462 kts 236°
2026-05-07 19:23 57.92183 16.94960 40170 ft 463 kts 236°
2026-05-07 19:23 57.88613 16.85224 40167 ft 463 kts 236°
2026-05-07 19:24 57.84953 16.75284 40169 ft 462 kts 236°
2026-05-07 19:24 57.81300 16.65387 40169 ft 462 kts 236°
2026-05-07 19:25 57.77629 16.55482 40174 ft 463 kts 236°
2026-05-07 19:25 57.73940 16.45576 40166 ft 465 kts 236°
2026-05-07 19:26 57.70224 16.35644 40172 ft 465 kts 236°
2026-05-07 19:26 57.66500 16.25731 40169 ft 465 kts 236°
2026-05-07 19:27 57.62792 16.15900 40169 ft 465 kts 236°
2026-05-07 19:27 57.59059 16.06042 40167 ft 465 kts 236°
2026-05-07 19:28 57.55312 15.96186 40162 ft 465 kts 236°
2026-05-07 19:28 57.51562 15.86366 40163 ft 465 kts 236°
2026-05-07 19:29 57.47827 15.76622 40163 ft 465 kts 235°
2026-05-07 19:29 57.44054 15.66826 40160 ft 467 kts 235°
2026-05-07 19:30 57.40266 15.57027 40160 ft 467 kts 235°
2026-05-07 19:30 57.37108 15.48883 40155 ft 467 kts 235°
2026-05-07 19:31 57.33309 15.39124 40146 ft 467 kts 235°
2026-05-07 19:31 57.29515 15.29419 40147 ft 467 kts 235°
2026-05-07 19:32 57.25789 15.19924 40142 ft 467 kts 234°
2026-05-07 19:32 57.21338 15.08626 40138 ft 468 kts 234°
2026-05-07 19:33 57.18139 15.00551 40136 ft 468 kts 234°
2026-05-07 19:33 57.14299 14.90889 40143 ft 469 kts 234°
2026-05-07 19:34 57.10539 14.81463 40139 ft 470 kts 234°
2026-05-07 19:34 57.06735 14.71963 40130 ft 470 kts 234°
2026-05-07 19:35 57.02833 14.62256 40127 ft 470 kts 234°
2026-05-07 19:35 56.98937 14.52604 40129 ft 470 kts 234°
2026-05-07 19:36 56.95050 14.43012 40128 ft 470 kts 234°
2026-05-07 19:36 56.91142 14.33408 40127 ft 470 kts 234°
2026-05-07 19:37 56.87225 14.23819 40128 ft 470 kts 233°
2026-05-07 19:37 56.83305 14.14260 40123 ft 470 kts 233°
2026-05-07 19:38 56.79377 14.04720 40137 ft 472 kts 233°
2026-05-07 19:38 56.75425 13.95159 40131 ft 472 kts 233°
2026-05-07 19:39 56.71457 13.85600 40136 ft 472 kts 233°
2026-05-07 19:39 56.67491 13.76079 40136 ft 472 kts 233°
2026-05-07 19:40 56.63508 13.66558 40143 ft 472 kts 233°
2026-05-07 19:40 56.59547 13.57125 40140 ft 472 kts 233°
2026-05-07 19:41 56.55562 13.47673 40145 ft 472 kts 233°
2026-05-07 19:41 56.51545 13.38182 40148 ft 473 kts 233°
2026-05-07 19:42 56.47557 13.28795 40147 ft 473 kts 233°
2026-05-07 19:42 56.43525 13.19342 40150 ft 474 kts 232°
2026-05-07 19:43 56.39492 13.09922 40150 ft 474 kts 232°
2026-05-07 19:43 56.35472 13.00570 40155 ft 474 kts 232°
2026-05-07 19:44 56.31424 12.91191 40166 ft 474 kts 232°
2026-05-07 19:44 56.27357 12.81804 40156 ft 474 kts 232°
2026-05-07 19:45 56.23297 12.72467 40152 ft 474 kts 232°
2026-05-07 19:45 56.19227 12.63144 40149 ft 474 kts 232°
2026-05-07 19:46 56.15164 12.53873 40159 ft 475 kts 232°
2026-05-07 19:46 56.11036 12.44588 40153 ft 475 kts 230°
2026-05-07 19:47 56.06875 12.35721 40150 ft 475 kts 230°
2026-05-07 19:47 56.02587 12.26709 40152 ft 475 kts 230°
2026-05-07 19:48 55.98318 12.17684 40152 ft 475 kts 230°
2026-05-07 19:48 55.94053 12.08661 40149 ft 476 kts 230°
2026-05-07 19:49 55.89780 11.99647 40150 ft 476 kts 230°
2026-05-07 19:49 55.85498 11.90647 40155 ft 476 kts 230°
2026-05-07 19:50 55.81221 11.81692 40150 ft 476 kts 230°
2026-05-07 19:50 55.76950 11.72783 40149 ft 476 kts 230°
2026-05-07 19:51 55.72649 11.63844 40149 ft 476 kts 230°
2026-05-07 19:51 55.68328 11.54896 40148 ft 477 kts 230°
2026-05-07 19:52 55.64007 11.45983 40148 ft 477 kts 229°
2026-05-07 19:52 55.59674 11.37073 40147 ft 477 kts 230°
2026-05-07 19:53 55.55398 11.28311 40147 ft 477 kts 229°
2026-05-07 19:53 55.51015 11.19382 40147 ft 477 kts 229°
2026-05-07 19:54 55.46657 11.10535 40150 ft 477 kts 229°
2026-05-07 19:54 55.42297 11.01709 40147 ft 477 kts 229°
2026-05-07 19:55 55.37930 10.92901 40147 ft 477 kts 229°
2026-05-07 19:55 55.33724 10.84447 40148 ft 477 kts 229°
2026-05-07 19:56 55.29340 10.75669 40147 ft 477 kts 229°
2026-05-07 19:56 55.24947 10.66903 40149 ft 477 kts 229°
2026-05-07 19:57 55.20550 10.58163 40150 ft 477 kts 229°
2026-05-07 19:57 55.16184 10.49515 40153 ft 477 kts 229°
2026-05-07 19:58 55.11777 10.40818 40150 ft 477 kts 229°
2026-05-07 19:58 55.07366 10.32142 40147 ft 477 kts 229°
2026-05-07 19:59 55.02949 10.23487 40151 ft 477 kts 228°
2026-05-07 19:59 54.98527 10.14853 40153 ft 477 kts 228°
2026-05-07 20:00 54.94121 10.06281 40142 ft 477 kts 228°
2026-05-07 20:00 54.89684 9.97673 40151 ft 477 kts 229°
2026-05-07 20:01 54.85352 9.88931 40161 ft 477 kts 230°
2026-05-07 20:01 54.81344 9.79746 40136 ft 477 kts 234°
2026-05-07 20:02 54.77526 9.70418 40138 ft 477 kts 234°
2026-05-07 20:02 54.73686 9.61021 40132 ft 477 kts 234°
2026-05-07 20:03 54.69858 9.51722 40144 ft 477 kts 234°
2026-05-07 20:03 54.66033 9.42486 40126 ft 477 kts 234°
2026-05-07 20:04 54.62130 9.33101 40136 ft 477 kts 234°
2026-05-07 20:04 54.58252 9.23809 40135 ft 476 kts 234°
2026-05-07 20:05 54.54361 9.14523 40128 ft 476 kts 234°
2026-05-07 20:05 54.50506 9.05354 40123 ft 477 kts 234°
2026-05-07 20:06 54.46624 8.96155 40124 ft 477 kts 234°
2026-05-07 20:06 54.42712 8.86922 40140 ft 477 kts 234°
2026-05-07 20:07 54.38803 8.77727 40134 ft 476 kts 233°
2026-05-07 20:07 54.34898 8.68576 40134 ft 476 kts 233°
2026-05-07 20:08 54.31214 8.59974 40132 ft 476 kts 233°
2026-05-07 20:08 54.27448 8.51209 40118 ft 476 kts 233°
2026-05-07 20:09 54.23747 8.42671 40116 ft 476 kts 232°
2026-05-07 20:10 54.16815 8.30489 40111 ft 476 kts 224°
2026-05-07 20:10 54.12035 8.22787 40116 ft 475 kts 223°
2026-05-07 20:11 54.07401 8.15367 40122 ft 475 kts 223°
2026-05-07 20:11 54.02726 8.07861 40130 ft 475 kts 223°
2026-05-07 20:12 53.97950 8.00194 40105 ft 475 kts 223°
2026-05-07 20:12 53.93140 7.92496 40118 ft 474 kts 223°
2026-05-07 20:13 53.88325 7.84816 40110 ft 474 kts 223°
2026-05-07 20:13 53.83514 7.77170 40109 ft 475 kts 223°
2026-05-07 20:14 53.78691 7.69531 40098 ft 475 kts 223°
2026-05-07 20:14 53.73883 7.61941 40094 ft 475 kts 223°
2026-05-07 20:15 53.69057 7.54348 40093 ft 474 kts 223°